When you browse on this site, cookies collect data to enhance your experience and personalize the content and advertising you see.
Visit our Privacy Policy to learn more. By continuing to use the site, you agree to this use of cookies and data.
  • In Hungary
  • List of Countries
  • For 7 days
  • Water Temperature
  • Weather Map
  • News
  • Weather Widgets
  • user-avatar
    Login

    Hourly Weather Zalozhe

    Today, 28 January, Tuesday

    Time Temperature Precipitation Wind Pressure Humidity
    00:00 0°C° 0.2 mm 1 mps 738 mmHg 98%
    01:00 0°C° 0.2 mm 1 mps 738 mmHg 98%
    02:00 0°C° 0 mm 1 mps 738 mmHg 97%
    03:00 0°C° 0 mm 1 mps 738 mmHg 97%
    04:00 -1°C° 0 mm 1 mps 737 mmHg 96%
    05:00 -3°C° 0 mm 2 mps 737 mmHg 96%
    06:00 -1°C° 0 mm 1 mps 737 mmHg 96%
    07:00 -1°C° 0 mm 1 mps 737 mmHg 96%
    08:00 -1°C° 0 mm 1 mps 737 mmHg 97%
    09:00 -1°C° 0 mm 1 mps 737 mmHg 94%
    10:00 -2°C° 0 mm 2 mps 737 mmHg 92%
    11:00 -2°C° 0 mm 2 mps 737 mmHg 89%
    12:00 -1°C° 0 mm 2 mps 737 mmHg 88%
    13:00 -1°C° 0 mm 2 mps 736 mmHg 87%
    14:00 -1°C° 0 mm 2 mps 736 mmHg 86%
    15:00 -1°C° 0 mm 2 mps 736 mmHg 88%
    16:00 -1°C° 0 mm 2 mps 736 mmHg 91%
    17:00 -2°C° 0 mm 2 mps 735 mmHg 93%
    18:00 -1°C° 0 mm 2 mps 735 mmHg 93%
    19:00 -1°C° 0 mm 3 mps 736 mmHg 94%
    20:00 -1°C° 0 mm 3 mps 736 mmHg 94%
    21:00 -1°C° 0 mm 3 mps 735 mmHg 94%
    22:00 -1°C° 0 mm 3 mps 735 mmHg 93%
    23:00 -1°C° 0 mm 3 mps 734 mmHg 93%

    Tomorrow, 29 January, Wednesday

    Time Temperature Precipitation Wind Pressure Humidity
    00:00 -1°C° 0 mm 3 mps 734 mmHg 93%
    01:00 -2°C° 0 mm 4 mps 734 mmHg 93%
    02:00 -2°C° 0 mm 4 mps 734 mmHg 92%
    03:00 -2°C° 0 mm 4 mps 733 mmHg 93%
    04:00 -3°C° 0 mm 4 mps 733 mmHg 93%
    05:00 -3°C° 0 mm 4 mps 732 mmHg 94%
    06:00 -3°C° 0 mm 4 mps 732 mmHg 93%
    07:00 -3°C° 0 mm 4 mps 733 mmHg 93%
    08:00 -2°C° 0 mm 4 mps 733 mmHg 93%
    09:00 -2°C° 0.1 mm 4 mps 732 mmHg 93%
    10:00 -2°C° 0.1 mm 5 mps 732 mmHg 93%
    11:00 -2°C° 0.1 mm 5 mps 732 mmHg 93%
    12:00 -1°C° 0 mm 5 mps 732 mmHg 92%
    13:00 -1°C° 0 mm 5 mps 731 mmHg 90%
    14:00 0°C° 0 mm 5 mps 731 mmHg 88%
    15:00 -1°C° 0 mm 5 mps 731 mmHg 91%
    16:00 -1°C° 0 mm 5 mps 730 mmHg 94%
    17:00 -1°C° 0 mm 5 mps 730 mmHg 97%
    18:00 0°C° 0.1 mm 5 mps 729 mmHg 96%
    19:00 0°C° 0.1 mm 5 mps 729 mmHg 95%
    20:00 0°C° 0.1 mm 5 mps 729 mmHg 94%
    21:00 0°C° 0.2 mm 5 mps 729 mmHg 95%
    22:00 -1°C° 0.2 mm 6 mps 728 mmHg 96%
    23:00 -2°C° 0.2 mm 6 mps 728 mmHg 96%

    Day after tomorrow, 30 January, Thursday

    Time Temperature Precipitation Wind Pressure Humidity
    00:00 -1°C° 0.3 mm 5 mps 728 mmHg 96%
    01:00 -1°C° 0.3 mm 5 mps 727 mmHg 96%
    02:00 -1°C° 0.3 mm 5 mps 727 mmHg 97%
    03:00 -1°C° 0.3 mm 5 mps 727 mmHg 97%
    04:00 -1°C° 0.3 mm 4 mps 726 mmHg 97%
    05:00 -1°C° 0.3 mm 4 mps 726 mmHg 97%
    06:00 -1°C° 0.5 mm 4 mps 726 mmHg 97%
    07:00 -1°C° 0.5 mm 4 mps 726 mmHg 97%
    08:00 -1°C° 0.5 mm 4 mps 726 mmHg 97%
    09:00 -1°C° 0.6 mm 4 mps 725 mmHg 97%
    10:00 -1°C° 0.6 mm 4 mps 725 mmHg 97%
    11:00 -1°C° 0.6 mm 4 mps 725 mmHg 97%
    12:00 0°C° 0.5 mm 3 mps 725 mmHg 96%
    13:00 0°C° 0.5 mm 3 mps 726 mmHg 95%
    14:00 -1°C° 0.5 mm 3 mps 726 mmHg 93%
    15:00 -1°C° 0.1 mm 2 mps 726 mmHg 93%
    16:00 -1°C° 0.1 mm 2 mps 726 mmHg 92%
    17:00 +1°C° 0.1 mm 1 mps 727 mmHg 92%
    18:00 +1°C° 0.1 mm 1 mps 727 mmHg 93%
    19:00 0°C° 0.1 mm 1 mps 727 mmHg 94%
    20:00 0°C° 0.1 mm 1 mps 728 mmHg 95%
    21:00 0°C° 0.2 mm 1 mps 728 mmHg 96%
    22:00 0°C° 0.2 mm 1 mps 728 mmHg 96%
    23:00 -1°C° 0.2 mm 0 mps 728 mmHg 97%

    31 January, Friday

    Time Temperature Precipitation Wind Pressure Humidity
    00:00 0°C° 0.3 mm 1 mps 728 mmHg 97%
    01:00 0°C° 0.3 mm 1 mps 728 mmHg 97%
    02:00 0°C° 0.3 mm 1 mps 729 mmHg 97%
    03:00 -2°C° 0.3 mm 2 mps 729 mmHg 97%
    04:00 -2°C° 0.3 mm 2 mps 729 mmHg 97%
    05:00 -2°C° 0.3 mm 2 mps 728 mmHg 97%
    06:00 -2°C° 0.3 mm 2 mps 729 mmHg 97%
    07:00 -2°C° 0.3 mm 2 mps 729 mmHg 97%
    08:00 -2°C° 0.3 mm 2 mps 729 mmHg 97%
    09:00 -2°C° 0.1 mm 2 mps 728 mmHg 95%
    10:00 -1°C° 0.1 mm 2 mps 728 mmHg 93%
    11:00 -1°C° 0.1 mm 2 mps 728 mmHg 91%
    12:00 -1°C° 0 mm 2 mps 728 mmHg 90%
    13:00 -1°C° 0 mm 2 mps 728 mmHg 90%
    14:00 -1°C° 0 mm 2 mps 728 mmHg 89%
    15:00 -1°C° 0.1 mm 2 mps 728 mmHg 92%
    16:00 -2°C° 0.1 mm 2 mps 728 mmHg 94%
    17:00 -2°C° 0.1 mm 2 mps 728 mmHg 97%
    18:00 -2°C° 0.1 mm 2 mps 728 mmHg 97%
    19:00 -2°C° 0.1 mm 2 mps 728 mmHg 97%
    20:00 -2°C° 0.1 mm 2 mps 728 mmHg 98%
    21:00 0°C° 0.1 mm 1 mps 729 mmHg 98%
    22:00 0°C° 0.1 mm 1 mps 729 mmHg 98%
    23:00 0°C° 0.1 mm 1 mps 729 mmHg 98%

    1 February, Saturday

    Time Temperature Precipitation Wind Pressure Humidity
    00:00 +1°C° 0 mm 1 mps 729 mmHg 98%
    01:00 +1°C° 0 mm 1 mps 729 mmHg 98%
    02:00 +1°C° 0 mm 1 mps 729 mmHg 98%
    03:00 +1°C° 0.1 mm 1 mps 729 mmHg 98%
    04:00 +2°C° 0.1 mm 1 mps 729 mmHg 98%
    05:00 +1°C° 0.1 mm 2 mps 729 mmHg 99%
    06:00 +1°C° 0.1 mm 2 mps 729 mmHg 99%
    07:00 +1°C° 0.1 mm 2 mps 729 mmHg 98%
    08:00 +1°C° 0.1 mm 2 mps 729 mmHg 98%
    09:00 0°C° 0.4 mm 3 mps 728 mmHg 98%
    10:00 +1°C° 0.4 mm 3 mps 728 mmHg 99%
    11:00 +1°C° 0.4 mm 3 mps 728 mmHg 99%
    12:00 +1°C° 0.4 mm 3 mps 728 mmHg 99%
    13:00 +1°C° 0.4 mm 3 mps 728 mmHg 98%
    14:00 0°C° 0.4 mm 4 mps 728 mmHg 98%
    15:00 +1°C° 0.2 mm 3 mps 728 mmHg 98%
    16:00 +1°C° 0.2 mm 3 mps 728 mmHg 98%
    17:00 +1°C° 0.2 mm 3 mps 728 mmHg 98%
    18:00 +1°C° 0.1 mm 3 mps 728 mmHg 98%
    19:00 +1°C° 0.1 mm 3 mps 728 mmHg 98%
    20:00 +1°C° 0.1 mm 3 mps 728 mmHg 98%
    21:00 +1°C° 0.2 mm 3 mps 728 mmHg 98%
    22:00 +1°C° 0.2 mm 3 mps 728 mmHg 97%
    23:00 0°C° 0.2 mm 3 mps 728 mmHg 97%

    2 February, Sunday

    Time Temperature Precipitation Wind Pressure Humidity
    00:00 0°C° 0 mm 3 mps 728 mmHg 97%
    01:00 +1°C° 0 mm 2 mps 729 mmHg 97%
    02:00 +1°C° 0 mm 2 mps 729 mmHg 96%
    03:00 -1°C° 0 mm 2 mps 728 mmHg 96%
    04:00 -1°C° 0 mm 2 mps 728 mmHg 95%
    05:00 -1°C° 0 mm 2 mps 728 mmHg 95%
    06:00 -1°C° 0 mm 2 mps 728 mmHg 95%
    07:00 +1°C° 0 mm 2 mps 727 mmHg 95%
    08:00 0°C° 0 mm 3 mps 727 mmHg 95%
    09:00 0°C° 0.1 mm 3 mps 727 mmHg 96%
    10:00 0°C° 0.1 mm 4 mps 726 mmHg 97%
    11:00 0°C° 0.1 mm 4 mps 726 mmHg 98%
    12:00 0°C° 0.9 mm 4 mps 725 mmHg 98%
    13:00 0°C° 0.9 mm 4 mps 725 mmHg 98%
    14:00 0°C° 0.9 mm 4 mps 725 mmHg 98%
    15:00 +1°C° 1.3 mm 3 mps 725 mmHg 98%
    16:00 +1°C° 1.3 mm 3 mps 725 mmHg 98%
    17:00 +2°C° 1.3 mm 2 mps 725 mmHg 98%
    18:00 +2°C° 0.9 mm 2 mps 725 mmHg 98%
    19:00 +1°C° 0.9 mm 3 mps 725 mmHg 98%
    20:00 +1°C° 0.9 mm 3 mps 726 mmHg 98%
    21:00 +1°C° 0.4 mm 3 mps 726 mmHg 98%
    22:00 0°C° 0.4 mm 4 mps 727 mmHg 97%
    23:00 0°C° 0.4 mm 4 mps 727 mmHg 97%
    Show more